Date String (YYYY-MM-DD hh:mm:ss) UTC,Instrument flags,Ambient pressure (hPa),Sample flow (lpm),Bypass flow (lpm),Sample temperature (°C),Ambient temperature (°C),ASC tube jacket temperature (°C),LED temperature (°C),Box temperature (°C),Sample RH (%),Span deviation,Mass concentration (μg/m³),Mass concentration (μg/m³),Mass concentration (μg/m³)
DateTimeUTC,F1_M11,P_M11,Q1_M11,Q2_M11,T1_M11,T2_M11,T3_M11,T4_M11,T5_M11,U1_M11,ZSPAN_M11,X0_M11,X2_M11,X1_M11
2022-09-18 04:00:00,,0822.7,4.99,0.00,30.2,29.1,00.0,38.9,32.1,22.6,0000.0,0011.11,0004.98,0004.25
2022-09-18 04:01:00,,0822.8,5.01,0.00,30.2,29.1,00.0,38.9,32.1,22.6,0000.0,0011.39,0004.93,0004.22
2022-09-18 04:02:00,,0822.8,4.99,0.00,30.3,29.1,00.0,38.9,32.1,22.5,0000.0,0011.05,0004.89,0004.20
2022-09-18 04:03:00,,0822.8,5.01,0.00,30.3,28.7,00.0,38.9,32.1,22.4,0000.0,0010.83,0004.86,0004.19
2022-09-18 04:04:00,,0822.8,5.01,0.00,30.3,27.3,00.0,38.9,32.1,22.4,0000.0,0010.38,0004.84,0004.18
2022-09-18 04:05:00,,0822.8,5.00,0.00,30.2,26.8,00.0,38.9,32.0,22.3,0000.0,0010.27,0004.80,0004.18
2022-09-18 04:06:00,,0822.8,4.99,0.00,30.1,26.9,00.0,38.8,31.8,22.4,0000.0,0010.01,0004.79,0004.18
2022-09-18 04:07:00,,0822.7,5.00,0.00,30.0,27.2,00.0,38.8,31.7,22.5,0000.0,0009.91,0004.79,0004.18
2022-09-18 04:08:00,,0822.7,4.99,0.00,30.0,27.5,00.0,38.8,31.7,22.5,0000.0,0009.84,0004.76,0004.16
2022-09-18 04:09:00,,0822.7,4.99,0.00,30.0,27.8,00.0,38.8,31.7,22.5,0000.0,0009.82,0004.76,0004.16
2022-09-18 04:10:00,,0822.8,4.99,0.00,30.0,28.0,00.0,38.8,31.8,22.6,0000.0,0009.33,0004.73,0004.17
2022-09-18 04:11:00,,0822.8,5.01,0.00,30.0,28.2,00.0,38.7,31.7,22.7,0000.0,0009.71,0004.73,0004.16
2022-09-18 04:12:00,,0822.8,5.00,0.00,30.0,28.3,00.0,38.7,31.8,22.7,0000.0,0009.69,0004.70,0004.16
2022-09-18 04:13:00,,0822.8,5.00,0.00,30.0,28.4,00.0,38.7,31.8,22.5,0000.0,0010.33,0004.71,0004.16
2022-09-18 04:14:00,,0822.8,5.01,0.00,30.0,28.5,00.0,38.7,31.8,22.6,0000.0,0010.24,0004.67,0004.15
2022-09-18 04:15:00,,0822.8,5.00,0.00,30.0,28.6,00.0,38.8,31.9,22.6,0000.0,0010.03,0004.64,0004.16
2022-09-18 04:16:00,,0822.8,4.99,0.00,30.0,28.7,00.0,38.8,31.9,22.6,0000.0,0009.78,0004.61,0004.15
2022-09-18 04:17:00,,0822.8,5.00,0.00,30.0,28.7,00.0,38.8,31.9,22.5,0000.0,0009.76,0004.62,0004.16
2022-09-18 04:18:00,,0822.9,4.99,0.00,30.1,28.8,00.0,38.8,31.9,22.4,0000.0,0009.88,0004.63,0004.16
2022-09-18 04:19:00,,0822.9,5.00,0.00,30.1,28.8,00.0,38.8,32.0,22.3,0000.0,0009.80,0004.63,0004.16
2022-09-18 04:20:00,,0823.0,4.99,0.00,30.1,28.9,00.0,38.8,32.0,22.2,0000.0,0009.74,0004.63,0004.16
2022-09-18 04:21:00,,0823.0,5.00,0.00,30.1,28.9,00.0,38.8,32.0,22.0,0000.0,0009.90,0004.63,0004.17
2022-09-18 04:22:00,,0823.0,5.00,0.00,30.1,28.9,00.0,38.8,32.0,21.8,0000.0,0009.62,0004.65,0004.18
2022-09-18 04:23:00,,0822.9,5.00,0.00,30.2,29.0,00.0,38.9,32.0,21.8,0000.0,0009.40,0004.67,0004.19
2022-09-18 04:24:00,,0823.0,4.99,0.00,30.2,29.0,00.0,38.9,32.1,21.8,0000.0,0008.25,0004.68,0004.20
2022-09-18 04:25:00,,0822.9,5.00,0.00,30.2,29.0,00.0,38.9,32.1,21.7,0000.0,0008.13,0004.70,0004.19
2022-09-18 04:26:00,,0823.0,4.99,0.00,30.2,29.1,00.0,38.9,32.1,21.8,0000.0,0008.14,0004.71,0004.19
2022-09-18 04:27:00,,0823.1,5.01,0.00,30.3,29.1,00.0,38.9,32.1,21.7,0000.0,0008.66,0004.73,0004.19
2022-09-18 04:28:00,,0823.0,4.99,0.00,30.3,29.1,00.0,39.0,32.2,21.7,0000.0,0009.35,0004.74,0004.19
2022-09-18 04:29:00,,0823.0,5.01,0.00,30.3,28.2,00.0,39.0,32.2,21.8,0000.0,0009.57,0004.72,0004.19
2022-09-18 04:30:00,,0822.9,5.00,0.00,30.3,26.9,00.0,38.9,32.0,21.7,0000.0,0009.56,0004.73,0004.21
2022-09-18 04:31:00,,0822.9,5.00,0.00,30.2,26.8,00.0,38.9,31.9,21.9,0000.0,0009.47,0004.70,0004.21
2022-09-18 04:32:00,,0822.9,5.00,0.00,30.1,27.0,00.0,38.9,31.7,22.0,0000.0,0009.31,0004.66,0004.20
2022-09-18 04:33:00,,0822.9,5.00,0.00,30.0,27.3,00.0,38.8,31.7,22.1,0000.0,0009.42,0004.65,0004.20
2022-09-18 04:34:00,,0822.9,5.01,0.00,30.0,27.6,00.0,38.8,31.7,22.1,0000.0,0009.49,0004.61,0004.19
2022-09-18 04:35:00,,0823.0,5.00,0.00,30.0,27.9,00.0,38.8,31.8,22.1,0000.0,0009.52,0004.61,0004.19
2022-09-18 04:36:00,,0823.0,5.01,0.00,30.0,28.1,00.0,38.8,31.8,21.6,0000.0,0009.63,0004.65,0004.20
2022-09-18 04:37:00,,0823.0,4.99,0.00,30.0,28.3,00.0,38.8,31.8,21.3,0000.0,0009.68,0004.68,0004.22
2022-09-18 04:38:00,,0823.0,4.99,0.00,30.0,28.4,00.0,38.8,31.8,21.3,0000.0,0009.21,0004.71,0004.23
2022-09-18 04:39:00,,0823.0,5.01,0.00,30.0,28.5,00.0,38.8,31.9,21.4,0000.0,0008.73,0004.70,0004.22
2022-09-18 04:40:00,,0823.0,4.99,0.00,30.0,28.6,00.0,38.8,31.9,21.8,0000.0,0009.04,0004.69,0004.22
2022-09-18 04:41:00,,0823.0,5.01,0.00,30.1,28.7,00.0,38.8,31.9,21.4,0000.0,0009.32,0004.67,0004.21
2022-09-18 04:42:00,,0823.1,4.99,0.00,30.1,28.8,00.0,38.8,31.9,21.4,0000.0,0009.46,0004.66,0004.20
2022-09-18 04:43:00,,0823.1,5.01,0.00,30.1,28.8,00.0,38.8,31.9,21.5,0000.0,0009.49,0004.68,0004.21
2022-09-18 04:44:00,,0823.1,4.99,0.00,30.1,28.8,00.0,38.8,31.9,21.5,0000.0,0009.29,0004.68,0004.21
2022-09-18 04:45:00,,0823.1,5.01,0.00,30.1,28.9,00.0,38.8,32.0,21.5,0000.0,0009.16,0004.72,0004.21
2022-09-18 04:46:00,,0823.1,5.01,0.00,30.2,28.9,00.0,38.9,32.0,21.3,0000.0,0009.62,0004.76,0004.22
2022-09-18 04:47:00,,0823.1,5.00,0.00,30.2,29.0,00.0,38.9,32.1,21.4,0000.0,0010.27,0004.76,0004.23
2022-09-18 04:48:00,,0823.1,5.00,0.00,30.2,29.0,00.0,38.9,32.1,21.5,0000.0,0010.95,0004.74,0004.22
2022-09-18 04:49:00,,0823.2,4.99,0.00,30.2,29.0,00.0,38.9,32.1,21.6,0000.0,0011.02,0004.74,0004.22
2022-09-18 04:50:00,,0823.2,5.00,0.00,30.3,29.1,00.0,38.9,32.1,21.8,0000.0,0010.74,0004.73,0004.22
2022-09-18 04:51:00,,0823.2,5.00,0.00,30.3,29.1,00.0,39.0,32.1,22.0,0000.0,0010.06,0004.74,0004.24
2022-09-18 04:52:00,,0823.2,4.99,0.00,30.3,29.1,00.0,39.0,32.2,22.1,0000.0,0009.92,0004.76,0004.25
2022-09-18 04:53:00,,0823.2,5.01,0.00,30.3,29.2,00.0,39.0,32.2,22.2,0000.0,0009.83,0004.78,0004.26
2022-09-18 04:54:00,,0823.1,4.99,0.00,30.4,29.2,00.0,39.0,32.2,22.4,0000.0,0010.04,0004.81,0004.29
2022-09-18 04:55:00,,0823.1,5.00,0.00,30.4,29.2,00.0,39.0,32.2,22.5,0000.0,0010.87,0004.89,0004.32
2022-09-18 04:56:00,,0823.0,5.01,0.00,30.4,29.2,00.0,39.1,32.3,22.4,0000.0,0011.49,0004.97,0004.36
2022-09-18 04:57:00,,0823.1,5.00,0.00,30.4,28.7,00.0,39.1,32.3,22.4,0000.0,0011.20,0005.00,0004.38
2022-09-18 04:58:00,,0823.0,5.00,0.00,30.4,27.2,00.0,39.0,32.2,22.3,0000.0,0011.24,0005.06,0004.39
2022-09-18 04:59:00,,0822.9,5.00,0.00,30.4,26.9,00.0,39.0,32.1,22.1,0000.0,0011.63,0005.20,0004.40
